Tucson Davis Monthan, AZ

3:21 AM MST on April 19, 2018 (GMT -0700)
Davis-Monthan Air Force Base

Weather History for KDMA - October, 2012

Change the Weather History Date:

Friday, October 12, 2012

  Actual Average Record
Temperature  
Mean Temperature 66 °F -  
Max Temperature 73 °F 84 °F 99 °F (1992)
Min Temperature 60 °F 56 °F 42 °F (1982)
Cooling Degree Days 2    
Growing Degree Days 16 (Base 50)    
Moisture  
Dew Point 42 °F    
Average Humidity 44    
Maximum Humidity 64    
Minimum Humidity 29    
Precipitation  
Precipitation 0.00 in - - ()
Sea Level Pressure  
Sea Level Pressure 29.95 in    
Wind  
Wind Speed 7 mph (WNW)    
Max Wind Speed 13 mph    
Max Gust Speed 20 mph    
Visibility 10 miles    
Events      
Averages and records for this station are not official NWS values.
T = Trace of Precipitation, MM = Missing Value Source: NWS Daily Summary

Daily Weather History Graph

Daily Weather History Graph

Search for Another Location

Airport or City:

Astronomy

Oct. 12, 2012 Rise Set
Actual Time 6:25 AM MST 5:53 PM MST
Civil Twilight 6:00 AM MST 6:18 PM MST
Nautical Twilight 5:32 AM MST 6:46 PM MST
Astronomical Twilight 5:03 AM MST 7:15 PM MST
Moon 3:21 AM MST (10/12) 3:58 PM MST (10/12)
Length of Visible Light 12h 17m
Length of Day
11h 28m
Waning Crescent, 10% of the Moon is Illuminated
Oct 12
Waning Crescent
Oct 15
New
Oct 21
First Quarter
Oct 29
Full
Nov 6
Last Quarter

Hourly Weather History & Observations

Time (MST) Temp. Dew Point Humidity Pressure Visibility Wind Dir Wind Speed Gust Speed Precip Events Conditions
12:55 AM 66.9 °F 50.0 °F 54% 29.81 in 10.0 mi SE 5.8 mph - N/A   Clear
1:55 AM 64.4 °F 46.2 °F 52% 29.84 in 10.0 mi West 5.8 mph - N/A   Clear
2:55 AM 64.4 °F 46.2 °F 52% 29.85 in 10.0 mi East 4.6 mph - N/A   Scattered Clouds
3:55 AM 63.1 °F 45.1 °F 52% 29.86 in 10.0 mi SW 5.8 mph - N/A   Clear
4:55 AM 62.4 °F 46.2 °F 55% 29.88 in 10.0 mi Calm Calm - N/A   Partly Cloudy
5:55 AM 62.1 °F 46.9 °F 58% 29.91 in 10.0 mi Variable 4.6 mph - N/A   Mostly Cloudy
6:55 AM 60.1 °F 47.7 °F 64% 29.93 in 10.0 mi Calm Calm - N/A   Clear
7:55 AM 63.0 °F 49.1 °F 61% 29.96 in 10.0 mi West 9.2 mph - N/A   Clear
8:55 AM 63.7 °F 48.7 °F 58% 29.99 in 10.0 mi Variable 3.5 mph - N/A   Overcast
9:55 AM 66.7 °F 44.8 °F 45% 30.00 in 10.0 mi WNW 9.2 mph - N/A   Scattered Clouds
10:55 AM 67.3 °F 44.4 °F 44% 30.00 in 10.0 mi WNW 9.2 mph - N/A   Clear
11:55 AM 69.8 °F 41.7 °F 36% 29.98 in 10.0 mi WNW 10.4 mph - N/A   Clear
12:55 PM 72.0 °F 39.2 °F 30% 29.96 in 10.0 mi WNW 12.7 mph 19.6 mph N/A   Clear
1:55 PM 72.0 °F 38.5 °F 30% 29.95 in 10.0 mi NNW 11.5 mph 19.6 mph N/A   Clear
2:55 PM 72.7 °F 39.0 °F 29% 29.94 in 10.0 mi NW 10.4 mph 17.3 mph N/A   Clear
3:55 PM 73.2 °F 39.6 °F 30% 29.94 in 10.0 mi West 9.2 mph - N/A   Clear
4:55 PM 71.8 °F 39.2 °F 31% 29.93 in 10.0 mi NNW 10.4 mph - N/A   Clear
5:55 PM 69.6 °F 38.1 °F 32% 29.95 in 10.0 mi NW 10.4 mph - N/A   Clear
6:55 PM 67.5 °F 38.5 °F 35% 29.97 in 10.0 mi NW 8.1 mph - N/A   Clear
7:55 PM 65.7 °F 38.7 °F 37% 29.98 in 10.0 mi NW 8.1 mph - N/A   Clear
8:55 PM 64.0 °F 39.0 °F 40% 29.99 in 10.0 mi WNW 6.9 mph - N/A   Clear
9:55 PM 63.0 °F 37.9 °F 40% 30.01 in 10.0 mi NW 8.1 mph - N/A   Clear
10:55 PM 61.9 °F 37.2 °F 40% 30.02 in 10.0 mi WNW 11.5 mph - N/A   Clear
11:55 PM 60.3 °F 36.7 °F 41% 30.03 in 10.0 mi West 8.1 mph - N/A   Clear